This is the latest recevied weather packets stored in our database for station/object IK2ILW-4. If no packets are shown the sender has not sent any weather packets the latest 10 day(s).
| Time | Temp. | Humidity | Pressure | Rain* | Wind** | Luminosity | Snow |
|---|---|---|---|---|---|---|---|
| 1777805270 | 16.11° C | 40% | 1021.5 hPa | 0 mm | - | 870 W/m² | - |
| 1777804967 | 15.56° C | 40% | 1021.6 hPa | 0 mm | - | 854 W/m² | - |
| 1777804666 | 15.56° C | 43% | 1021.6 hPa | 0 mm | - | 838 W/m² | - |
| 1777804363 | 16.11° C | 43% | 1021.6 hPa | 0 mm | - | 821 W/m² | - |
| 1777804062 | 15.56° C | 43% | 1021.7 hPa | 0 mm | - | 849 W/m² | - |
| 1777803764 | 15.56° C | 44% | 1021.7 hPa | 0 mm | - | 851 W/m² | - |
| 1777803463 | 15° C | 42% | 1021.7 hPa | 0 mm | - | 835 W/m² | - |
| 1777803158 | 15.56° C | 42% | 1021.8 hPa | 0 mm | - | 780 W/m² | - |
| 1777802854 | 15° C | 41% | 1021.8 hPa | 0 mm | - | 816 W/m² | - |
| 1777802573 | 15.56° C | 43% | 1021.8 hPa | 0 mm | - | 844 W/m² | - |
| 1777802269 | 15.56° C | 41% | 1021.7 hPa | 0 mm | - | 830 W/m² | - |
| 1777801966 | 15.56° C | 38% | 1021.7 hPa | 0 mm | - | 819 W/m² | - |
| 1777801662 | 15.56° C | 42% | 1021.7 hPa | 0 mm | - | 830 W/m² | - |
| 1777801358 | 15.56° C | 42% | 1021.7 hPa | 0 mm | - | 819 W/m² | - |
| 1777801058 | 15° C | 44% | 1021.7 hPa | 0 mm | - | 819 W/m² | - |
| 1777800755 | 15° C | 39% | 1021.7 hPa | 0 mm | - | 805 W/m² | - |
| 1777800452 | 15° C | 41% | 1021.7 hPa | 0 mm | - | 816 W/m² | - |
| 1777800172 | 15° C | 41% | 1021.7 hPa | 0 mm | - | 782 W/m² | - |
| 1777799868 | 15° C | 45% | 1021.7 hPa | 0 mm | - | 782 W/m² | - |
| 1777799564 | 15° C | 40% | 1021.6 hPa | 0 mm | - | 788 W/m² | - |
| 1777799267 | 15° C | 44% | 1021.6 hPa | 0 mm | - | 735 W/m² | - |
| 1777798964 | 15° C | 43% | 1021.6 hPa | 0 mm | - | 738 W/m² | - |
| 1777798660 | 14.44° C | 45% | 1021.7 hPa | 0 mm | - | 777 W/m² | - |
| 1777798360 | 14.44° C | 48% | 1021.7 hPa | 0 mm | - | 766 W/m² | - |
| 1777798059 | 13.89° C | 49% | 1021.7 hPa | 0 mm | - | 756 W/m² | - |
* Rain since midnight (hover to see other rain measurements)
** Current wind speed in m/s (hover to see current wind gust speed)